DECAYED
Showing default

FLOCK 1C 4, 40031 (Decayed)

Orbit data source: Space-Track

FLOCK 1C 4, 40031 was a payload satellite owned by Planet Labs (US) in LEO that was launched on Thu, 19 Jun 2014 UTC via a DNEPR launch vehicle from the Orenburg, Russia (OREN). Payload-class satellites include a variety of spacecraft equipped with specific instruments for various scientific and technological missions. These include communications satellites like Starlink; space stations such as the ISS; scientific satellites like the Hubble; Earth observation satellites from companies like Planet Labs, Umbra, and HawkEye 360; GPS; miniature CubeSats for education and research; and military/defense satellites.

Not visible in the next 10 days
Identifier
40031, 2014-033X
Orbit
Decayed
Country
Flag of USUS
Related business
Manufacturer
Planet Labs
Mission
Decayed Commercial Imaging
Bus & Motor
CUBESAT 3U, Unknown motor
Mass
4.25 kg wet, 4.25 kg dry
Launch date (UTC)
2014-06-19 (12 years ago)
Launch vehicle
DNEPR
Launch site
Orenburg, Russia (OREN)
Object type
Payload
Rocket body
Debris
Shape & HBR
Box + 2 Pan, 1.0 m
Radar Cross Section
0.108 m², Medium (>0.1 m² and < 1m²)

Expand to show TLE details & history
Last TLE update: 7 months ago

TLE from 7 months ago
0 FLOCK 1C 4
1 40031U 14033X   25328.91501170  .16124643  30386-5  11118-2 0  9999
2 40031  98.0507 359.7990 0009220 238.7164 121.3231 16.40708967623737
Epoch: 2025-11-24T21:57Z
TLE epoch observation values (Epoch: 2025-11-24T21:57:37.010Z)
Latitude
-0.00009°
Longitude
-33.71333°
Altitude
170.29 km
Speed
7.802 km/s
True Right ascension
23h 59m 11s
True Declination
0° 00' 00"
Sunlit
Object was in full shadow at epoch
Visualization orbit readout
Latitude
Unknown
Longitude
Unknown
Altitude
Unknown
Speed
Unknown
Apparent Right ascension
Unknown
Apparent Declination
Unknown
Sunlit
N/A
Visualization observer readout
Local Sidereal Time
21:43:25
Azimuth
Unknown
Elevation
Unknown
Doppler factor
Unknown
Orbital elements
Apogee altitude
166.783 km
Perigee altitude
154.726 km
Semi-major axis
6,538.891 km
Eccentricity
0.00092
Inclination
98.0507°
RAAN
359.799°
Arg. of periapsis
238.7164°
True anomaly
121.4133°
Mean anomaly
121.3231°
Eccentric anomaly
121.36821°
Mean motion
4.10475 °/min
Orbital period
87.7 mins
BSTAR
0.0011118
Loading maneuver chart data...
Computing Atmospheric mass density...
Loading historical data...
Loading historical data...
Loading historical data...
Loading historical data...
Loading historical data...
Loading historical data...
Loading historical data...

Documentation

Showing up to 5 results
|